Dewpoint
72 73 74 75 75 75 75 75 74 75 75 75 74 74 74 74 74 74 74 74 74 74 74 73 73 73 73 73 73 73 72 72 71 70 70 69 69 69 69 69 69 70 70 70 70 70 69 70 70 71 71 71 71 71 70 70 70 70 69 68 67 67 67 67 67 67 67 67 67 67 68 68 68 68 67 67 66 66 65 65 65 64 63 63 64
72 73 74 75 75 75 75 75 74 75 75 75 74 74 74 74 74 74 74 74 74 74 74 73 73 73 73 73 73 72 72 71 71 71 70 70 70 70 70 70 69 69 70 70 70 70 70 70 69 69 70 70 70 70 70 70 70 69 68 68 68 68 68 68 69 69 69 68 68 68 68 68 67 67 67 66 65 66 66 65 64 64 63 64 64
73 73 74 75 75 75 75 75 74 75 75 75 75 74 74 74 74 74 74 74 74 74 74 73 73 73 73 73 73 73 72 71 70 70 70 70 70 70 70 70 70 70 70 70 70 69 69 69 69 68 68 69 69 70 70 70 70 69 69 69 68 68 68 68 68 69 68 68 68 68 68 67 67 66 65 65 66 65 64 64 64 64 62 64 64
72 73 74 75 75 75 75 75 75 74 75 75 74 74 74 74 74 74 74 74 74 74 74 74 74 74 73 73 73 72 72 71 70 70 70 69 70 70 70 70 70 70 70 69 69 69 69 69 68 68 68 69 69 69 70 70 70 69 69 69 68 68 68 68 68 68 68 68 68 67 67 64 64 65 65 65 66 65 65 64 64 64 64 64 64
72 73 74 74 75 75 75 75 75 75 74 74 74 74 74 74 74 74 74 73 74 74 74 74 74 73 73 73 72 72 72 72 71 70 70 69 69 69 69 69 69 69 70 69 69 69 69 68 68 67 67 68 68 69 69 69 69 69 69 68 68 68 68 68 68 68 68 67 67 66 63 63 63 65 65 65 65 65 65 65 65 64 64 64 64
72 72 73 74 74 75 75 75 75 75 74 74 74 74 74 74 73 73 73 73 74 74 74 74 74 73 73 72 73 73 73 73 71 71 71 70 70 69 69 69 69 69 69 69 69 69 69 68 68 67 67 67 68 68 69 69 70 69 68 68 68 68 67 67 67 67 67 67 67 64 63 63 63 64 65 66 66 65 65 65 64 64 64 64 64
72 73 73 73 74 74 74 75 74 75 74 74 74 74 74 73 73 73 73 73 74 74 74 74 74 73 73 72 72 73 73 72 73 73 72 72 71 70 69 69 69 70 69 69 69 69 68 68 68 68 67 67 68 68 69 69 69 69 68 67 67 67 67 68 68 67 67 66 63 63 63 64 64 63 65 65 65 65 65 64 64 64 64 64 64
71 72 72 72 74 74 74 74 74 74 74 74 73 74 74 74 74 73 73 73 74 74 74 73 74 74 73 73 73 72 72 73 73 73 71 69 71 71 70 69 69 69 70 69 69 69 68 68 68 68 68 68 68 69 68 69 69 69 69 70 69 67 67 67 67 67 66 63 64 64 64 63 63 62 64 65 65 66 66 65 65 64 64 64 63
71 72 72 73 73 74 74 74 74 74 74 74 73 73 73 74 74 73 73 73 74 74 74 74 73 73 73 73 72 72 72 72 73 72 73 73 72 71 71 70 69 69 69 69 69 69 68 68 67 67 68 68 68 69 69 69 69 69 69 68 68 68 66 66 67 67 65 64 64 64 64 64 64 63 65 65 66 66 65 65 65 64 63 63 63
71 72 72 72 73 74 74 74 74 74 74 74 74 73 72 72 74 73 73 73 73 74 73 73 74 74 73 73 72 72 72 72 72 72 72 72 72 72 71 69 69 69 68 69 69 69 69 68 67 68 68 68 69 68 69 68 68 68 68 67 67 67 67 66 66 65 63 64 63 63 65 68 64 64 65 65 65 64 63 63 65 63 62 62 63
71 71 72 72 73 73 74 74 74 74 74 74 74 73 72 72 71 71 72 73 73 73 74 73 73 73 73 73 72 72 72 72 72 72 72 73 72 72 70 69 69 69 68 69 69 69 69 69 68 69 69 69 68 68 68 68 68 68 67 66 66 66 67 66 64 62 63 62 63 64 66 67 63 63 65 65 65 64 64 63 63 63 63 63 62
70 71 72 72 72 73 74 74 73 74 74 74 74 73 72 73 72 71 71 72 73 73 73 73 73 73 73 72 72 72 72 72 72 73 72 70 70 70 69 69 69 69 69 69 69 69 69 70 70 70 69 69 68 68 67 67 67 67 67 66 67 67 67 66 62 62 62 63 64 64 65 64 64 64 66 65 65 64 63 63 63 63 63 63 63
70 70 72 72 73 73 73 73 73 74 73 74 74 73 73 73 72 71 71 71 71 72 72 73 73 73 72 72 72 72 72 73 72 73 72 71 70 70 70 69 70 70 70 70 70 70 70 70 70 70 69 69 69 68 68 67 67 66 67 68 67 66 67 65 62 62 62 63 64 63 63 62 63 65 65 65 64 64 63 64 63 63 63 62 62
69 70 71 72 72 72 73 73 73 73 73 73 73 73 73 73 72 71 70 70 70 71 71 71 71 73 72 72 72 72 73 73 73 72 72 71 71 71 70 69 68 68 69 69 70 70 70 70 70 70 69 69 69 68 68 68 67 67 67 67 67 66 65 65 64 62 63 63 63 62 62 64 63 66 65 65 64 64 63 63 63 63 63 62 62
69 69 71 71 71 71 73 72 72 72 72 73 73 72 72 72 71 70 69 70 70 70 71 72 73 73 73 73 73 73 72 72 72 71 72 72 72 71 70 69 69 69 68 69 69 69 69 69 69 70 69 69 69 68 68 67 67 67 67 67 67 66 65 62 61 62 63 63 64 63 62 63 67 66 65 65 64 63 63 63 61 62 62 62 62
69 70 70 70 70 70 70 71 72 72 72 72 72 72 72 72 72 70 70 70 70 71 72 72 73 73 72 72 72 72 72 72 71 72 72 71 71 71 70 70 69 69 69 70 69 69 69 69 69 70 69 69 68 68 68 68 67 66 66 66 66 67 66 65 62 62 62 63 63 64 63 64 67 66 64 65 64 63 63 62 62 62 61 61 61
69 70 69 69 69 69 70 71 71 71 72 72 72 72 71 72 72 71 70 70 70 71 72 72 72 72 72 72 72 72 72 72 72 72 72 72 71 71 70 69 69 69 69 70 69 69 69 69 69 69 69 69 68 68 67 67 67 66 67 67 67 67 66 65 61 62 63 64 64 64 63 64 65 66 64 63 63 62 62 62 62 61 61 61 61
69 69 68 68 68 68 68 68 68 68 70 71 72 71 71 71 71 72 71 71 71 71 71 72 72 72 72 72 72 72 72 72 72 71 71 71 71 70 70 69 69 69 69 69 69 69 69 69 69 69 69 68 68 67 67 67 67 67 67 67 66 65 67 65 62 62 63 65 63 65 64 66 67 64 63 63 63 62 62 61 61 61 61 61 61
69 69 68 68 68 67 67 66 67 67 68 69 70 72 71 71 71 72 71 71 71 72 72 72 72 72 72 72 72 72 72 72 72 71 71 71 71 70 70 69 69 70 69 69 69 69 69 69 69 69 69 68 68 67 67 67 67 66 66 67 65 65 66 65 62 62 63 64 63 63 63 67 67 64 64 63 62 61 61 61 61 61 61 61 61
68 68 67 67 67 66 65 65 65 66 66 66 68 70 71 71 71 72 71 71 72 72 72 72 72 72 72 72 72 72 71 71 71 70 70 70 70 70 70 69 69 69 69 69 68 68 69 69 69 69 69 68 67 67 67 67 67 67 67 66 66 65 64 62 62 62 63 62 64 63 66 67 65 64 64 63 61 61 61 61 61 61 61 61 61
67 67 66 66 65 65 65 64 65 65 65 66 67 68 70 71 71 71 71 71 70 71 72 72 72 72 72 72 71 70 69 70 70 70 69 70 70 70 69 69 69 68 68 68 68 68 68 69 69 69 68 68 67 67 67 68 67 67 67 66 65 61 62 61 61 63 62 63 65 63 67 65 65 64 64 63 62 62 61 61 61 61 61 61 61
66 66 65 66 65 64 65 64 64 64 65 66 68 68 69 71 69 69 69 70 70 70 70 70 71 70 71 71 70 70 68 67 69 70 70 70 70 70 70 69 68 69 69 69 68 68 68 68 69 68 68 68 67 64 65 67 68 68 66 67 62 61 62 62 61 62 62 62 64 64 66 65 65 65 64 63 62 62 61 61 60 61 61 61 60
64 64 64 65 64 64 64 65 65 64 65 66 67 68 68 69 70 70 69 70 70 69 69 69 68 67 69 70 69 68 67 69 68 69 69 70 70 68 70 69 69 70 69 69 69 69 69 69 68 68 68 67 63 62 61 59 62 67 66 63 61 60 61 61 61 62 62 62 62 66 66 65 65 65 64 63 63 62 61 61 61 61 61 60 60
62 63 63 64 64 63 64 64 65 65 65 65 67 67 68 69 70 70 70 70 69 69 68 69 68 68 69 68 68 67 67 68 69 69 71 68 69 69 70 69 70 70 69 69 69 69 69 68 68 68 68 65 61 61 61 60 60 60 61 62 61 60 61 60 61 61 62 64 63 66 66 65 65 65 64 63 63 63 61 61 61 60 61 60 60
58 60 63 63 63 63 63 64 65 65 65 64 67 66 68 68 68 69 70 69 70 70 70 68 67 68 68 67 67 67 66 67 67 67 65 67 67 67 68 68 68 68 69 67 67 67 67 65 65 65 63 63 61 60 61 60 61 61 60 60 61 60 61 61 61 61 61 62 63 66 66 66 65 65 64 63 63 63 62 61 61 61 60 61 60
55 59 59 61 62 64 64 64 65 65 65 65 65 66 68 66 66 67 68 67 68 69 68 66 66 67 66 67 67 66 67 67 67 65 65 66 65 67 68 68 67 66 67 66 66 65 65 65 65 63 63 62 62 61 60 61 60 60 60 60 61 60 60 60 60 61 62 62 63 66 67 66 66 65 65 63 63 63 63 61 61 61 60 61 61
54 53 52 57 59 62 64 65 64 64 65 66 65 65 64 64 64 66 66 64 66 66 65 65 66 66 65 67 65 66 68 68 67 65 65 65 66 66 68 68 67 66 66 66 65 64 64 62 61 61 60 61 62 61 60 60 60 60 60 60 60 60 60 60 60 60 61 62 64 67 67 67 67 65 65 64 63 63 63 62 62 62 60 61 61
49 49 51 53 56 53 56 63 64 64 64 65 64 64 64 65 65 67 66 69 66 63 65 65 66 66 65 66 67 67 67 66 66 66 65 65 64 66 68 68 68 67 65 64 65 63 63 61 60 60 60 60 61 61 60 60 60 60 60 60 60 60 60 60 60 60 61 62 63 66 67 67 67 66 65 64 64 63 63 63 62 62 60 60 60
48 48 48 50 50 53 54 59 63 63 63 64 64 63 64 64 65 65 65 68 64 65 66 65 66 66 66 68 69 68 67 66 65 65 66 65 65 66 67 68 67 67 65 63 63 63 63 62 60 60 59 59 59 59 59 60 60 60 60 60 60 60 60 60 60 60 61 62 62 64 67 67 67 67 66 65 64 64 64 63 63 62 61 60 60
47 46 49 50 50 49 53 56 61 63 62 63 63 63 62 63 63 64 64 67 65 65 65 64 64 65 65 66 68 67 66 65 65 65 65 65 65 66 66 67 67 66 65 64 63 62 62 62 60 60 59 59 59 59 59 59 60 60 60 60 60 61 61 60 60 60 61 62 62 63 67 66 66 66 66 65 64 64 64 64 64 62 62 61 60
46 47 49 50 54 50 53 58 60 62 60 61 60 62 62 61 63 65 65 64 65 66 64 64 64 64 65 65 66 66 65 64 65 66 65 65 66 67 65 66 66 66 66 65 64 63 62 61 61 60 59 58 58 59 59 59 58 60 61 61 61 61 61 60 60 60 61 62 62 63 64 67 66 66 66 66 65 64 64 64 64 63 62 62 62
47 48 49 49 49 49 50 53 55 58 59 60 62 60 60 61 61 61 62 63 64 63 64 64 65 64 65 65 66 67 66 64 64 65 65 64 65 67 66 65 65 65 66 65 65 65 64 63 62 61 61 60 59 59 59 59 58 59 60 61 61 61 60 60 60 60 61 61 62 62 63 64 66 66 66 66 66 66 64 64 64 64 63 63 63
47 48 49 50 48 48 49 50 51 52 54 56 58 58 58 59 58 59 61 63 62 62 62 63 64 65 65 65 65 67 67 65 64 64 65 64 65 65 65 65 65 65 65 66 66 65 65 65 64 63 62 61 61 61 60 59 59 59 60 61 61 60 60 60 60 60 60 61 62 62 62 63 63 66 65 66 65 66 66 65 64 64 64 63 63
48 49 49 48 50 51 52 52 50 50 53 54 56 55 55 55 57 56 61 60 60 61 63 61 63 63 65 66 66 66 65 66 65 64 65 65 65 64 64 64 65 65 65 65 65 65 65 65 65 64 65 63 62 62 60 58 59 60 60 60 61 60 60 60 60 60 60 61 61 62 62 62 62 63 64 66 66 65 65 66 64 64 64 63 63
50 48 47 49 51 51 52 52 54 54 54 55 54 53 52 52 51 53 56 57 57 58 58 58 59 61 64 65 66 66 66 65 66 65 65 66 66 66 65 65 66 65 65 65 65 64 64 64 64 64 63 63 63 62 61 59 58 59 60 60 60 60 59 59 60 60 60 61 61 61 62 62 62 62 63 62 65 65 65 65 66 65 64 64 63
48 47 50 49 49 51 52 50 51 50 51 52 51 52 51 52 54 56 52 54 55 56 56 57 59 60 61 61 63 66 66 66 65 65 64 64 64 64 65 66 66 65 65 65 64 64 64 64 64 64 63 63 63 63 62 60 58 59 60 60 60 60 59 59 59 60 60 61 61 61 61 61 61 61 63 62 61 64 65 65 65 65 66 64 63
47 48 49 49 50 51 52 48 48 49 50 51 50 50 51 51 51 51 52 53 53 54 55 57 60 59 59 60 61 63 63 66 67 67 64 64 64 63 64 64 65 66 66 65 65 64 64 64 64 64 64 63 64 63 62 60 58 58 59 59 60 60 59 59 59 59 60 61 61 61 61 61 61 64 62 61 61 61 63 65 65 65 65 65 64
48 48 48 48 48 49 48 48 49 49 49 50 50 51 52 53 52 54 57 54 55 56 57 58 58 58 58 59 60 61 63 63 64 66 66 65 65 64 64 63 64 64 65 65 65 65 64 64 64 64 65 65 65 64 63 60 59 58 58 59 59 60 60 59 59 60 60 61 61 60 60 61 61 61 61 61 61 61 61 63 65 65 65 64 64
49 48 48 48 48 47 49 52 49 49 49 51 53 53 52 52 52 52 52 53 54 54 55 56 56 57 57 57 59 60 60 60 61 63 65 64 64 64 63 64 65 64 64 64 64 65 64 64 64 64 65 65 64 65 63 62 61 59 58 58 58 59 60 60 59 60 59 60 61 61 61 60 60 60 60 60 61 61 60 61 62 64 64 64 64
49 48 48 47 46 47 49 51 49 49 50 52 52 52 51 51 49 50 51 52 52 55 54 53 54 55 57 57 57 58 58 59 58 60 61 62 62 62 63 64 60 62 63 63 64 64 64 64 64 64 64 64 65 65 63 62 61 61 60 59 58 58 59 59 59 59 59 59 60 61 61 61 61 60 60 60 60 60 61 60 61 62 63 64 64
48 47 46 46 46 47 50 49 49 50 51 51 51 51 48 47 49 48 48 49 51 52 52 52 53 54 54 55 56 56 56 57 57 57 57 60 59 60 60 61 62 63 63 63 63 64 64 63 64 62 62 62 63 65 65 63 60 59 60 59 59 58 58 58 58 59 59 59 59 60 61 61 61 61 60 60 60 60 60 61 61 61 62 63 64
48 47 45 45 46 48 48 48 49 50 50 51 52 50 49 48 49 48 47 49 51 49 48 49 51 55 53 52 52 51 51 53 57 57 56 56 56 58 58 59 60 61 63 63 63 64 65 64 63 62 62 61 61 63 64 62 60 58 57 57 58 58 58 57 57 58 58 58 59 59 60 61 61 61 61 60 60 60 60 60 61 61 61 62 63
47 46 45 45 46 47 47 49 49 50 51 52 52 50 49 48 48 47 50 49 49 51 49 53 55 52 51 52 52 51 51 52 54 57 56 55 55 55 55 56 58 59 59 60 60 61 61 63 63 62 61 62 62 63 62 62 60 59 58 56 54 55 56 56 57 56 57 57 58 59 59 60 60 62 62 61 60 60 59 59 60 61 61 61 61
48 46 46 44 46 48 48 49 50 51 51 52 54 50 49 48 49 49 50 49 47 53 49 50 50 50 50 51 51 51 52 52 53 55 54 54 53 54 54 55 56 57 57 58 58 59 60 62 63 63 63 61 60 61 63 63 61 59 55 56 54 53 52 54 55 56 56 56 57 58 58 58 59 60 61 61 61 61 60 59 59 60 61 61 61
47 46 46 45 46 46 48 49 50 51 51 54 52 51 50 50 52 51 50 48 48 47 47 47 49 54 50 49 49 51 51 51 52 54 55 53 53 53 54 54 55 55 55 55 56 57 58 60 61 62 63 62 61 61 61 62 62 62 59 55 53 53 53 54 54 55 56 55 55 56 57 58 58 58 59 60 61 61 61 60 60 60 60 61 61
47 46 46 46 45 46 49 50 50 51 51 52 50 50 48 49 49 48 46 45 45 44 44 45 47 48 47 48 50 50 51 51 51 52 55 55 53 53 53 54 54 55 55 54 54 55 56 57 59 61 62 62 62 61 61 61 61 62 61 61 57 54 54 56 54 53 56 57 56 55 55 56 57 58 58 58 58 59 60 61 61 60 60 60 61
46 47 47 47 46 47 49 50 50 51 52 51 50 50 46 48 48 47 46 46 46 46 45 45 47 47 48 48 49 51 51 51 52 52 53 54 53 53 53 53 54 54 55 54 54 54 55 56 57 58 60 62 62 60 60 61 61 61 61 61 61 61 60 57 53 53 53 55 57 58 57 56 56 57 57 57 58 58 59 60 60 61 60 60 60
46 47 47 48 47 47 49 50 50 52 51 50 50 48 46 47 47 47 48 47 47 47 45 46 46 51 46 48 50 50 50 52 51 51 52 54 53 52 52 52 53 55 55 54 54 54 55 55 56 56 56 58 60 60 60 61 60 60 60 60 60 61 61 61 60 58 56 55 55 57 57 58 57 57 57 57 57 57 58 58 59 60 60 60 61
47 46 46 47 49 48 49 51 50 51 50 49 49 47 48 47 47 48 49 48 48 47 48 50 48 50 47 49 49 49 49 50 51 52 52 53 54 51 51 51 52 53 54 53 53 54 54 54 54 55 55 56 57 59 60 59 60 59 60 60 61 61 61 60 59 59 57 56 56 56 56 56 56 57 58 58 57 57 57 58 58 59 60 60 60
47 48 47 48 49 49 49 50 50 50 49 49 49 47 48 49 48 48 48 48 48 47 48 48 47 47 47 47 47 48 49 49 49 50 51 51 51 51 51 51 51 52 53 51 51 52 52 53 53 54 54 54 56 57 57 58 59 59 60 60 59 59 59 60 60 60 60 59 56 56 56 56 56 56 57 58 58 57 56 57 58 58 58 60 60
47 47 47 48 50 49 49 50 50 50 49 49 48 46 49 49 48 48 48 47 46 46 46 46 47 46 46 46 46 47 50 50 50 49 50 51 51 52 50 50 51 53 52 50 50 51 51 51 52 52 52 53 53 54 54 55 56 56 57 58 58 58 58 57 57 57 58 57 57 57 58 58 57 57 58 58 58 59 58 57 56 57 57 58 59